Date String (YYYY-MM-DD hh:mm:ss) UTC,Instrument flags,Ambient pressure (hPa),Sample flow (lpm),Bypass flow (lpm),Sample temperature (°C),Ambient temperature (°C),ASC tube jacket temperature (°C),LED temperature (°C),Box temperature (°C),Sample RH (%),Span deviation,Mass concentration (μg/m³),Mass concentration (μg/m³),Mass concentration (μg/m³)
DateTimeUTC,F1_M11,P_M11,Q1_M11,Q2_M11,T1_M11,T2_M11,T3_M11,T4_M11,T5_M11,U1_M11,ZSPAN_M11,X0_M11,X2_M11,X1_M11
2021-08-25 01:00:00,,0827.4,5.00,0.00,28.7,25.5,00.0,37.8,30.1,18.9,0000.7,0014.69,0004.82,0004.11
2021-08-25 01:01:00,,0827.4,4.99,0.00,28.6,25.9,00.0,37.8,30.2,18.9,0000.5,0014.62,0004.83,0004.10
2021-08-25 01:02:00,,0827.4,5.01,0.00,28.6,26.4,00.0,37.8,30.3,18.9,0000.7,0013.80,0004.89,0004.10
2021-08-25 01:03:00,,0827.4,4.99,0.00,28.7,26.9,00.0,37.8,30.5,18.8,0000.6,0013.98,0004.92,0004.11
2021-08-25 01:04:00,,0827.4,5.01,0.00,28.8,27.3,00.0,37.8,30.6,18.8,0000.1,0014.29,0004.95,0004.12
2021-08-25 01:05:00,,0827.5,4.99,0.00,28.8,27.7,00.0,37.8,30.8,18.6,-000.4,0013.81,0004.97,0004.12
2021-08-25 01:06:00,,0827.4,4.99,0.00,28.9,27.9,00.0,37.8,30.8,18.3,-000.4,0014.25,0005.00,0004.14
2021-08-25 01:07:00,,0827.5,5.01,0.00,28.9,27.2,00.0,37.8,30.7,18.2,-000.4,0014.63,0005.01,0004.14
2021-08-25 01:08:00,,0827.4,5.00,0.00,28.8,25.5,00.0,37.8,30.2,18.4,-000.1,0014.37,0005.05,0004.14
2021-08-25 01:09:00,,0827.5,5.00,0.00,28.7,25.4,00.0,37.8,30.1,18.6,0000.1,0014.45,0005.07,0004.15
2021-08-25 01:10:00,,0827.5,5.00,0.00,28.6,25.8,00.0,37.8,30.2,18.5,0000.1,0013.62,0005.07,0004.16
2021-08-25 01:11:00,,0827.5,5.01,0.00,28.6,26.3,00.0,37.7,30.3,18.6,0000.6,0013.93,0005.08,0004.17
2021-08-25 01:12:00,,0827.6,5.00,0.00,28.6,26.8,00.0,37.7,30.4,18.6,0000.6,0013.87,0005.07,0004.17
2021-08-25 01:13:00,,0827.5,5.01,0.00,28.7,27.2,00.0,37.7,30.6,18.6,0000.2,0014.22,0005.03,0004.17
2021-08-25 01:14:00,,0827.5,5.00,0.00,28.8,27.6,00.0,37.8,30.7,18.4,0000.1,0014.04,0005.05,0004.17
2021-08-25 01:15:00,,0827.5,5.00,0.00,28.9,27.9,00.0,37.8,30.8,18.2,0001.0,0014.19,0005.10,0004.17
2021-08-25 01:16:00,,0827.6,5.01,0.00,28.9,28.1,00.0,37.8,30.9,18.0,0001.9,0014.61,0005.09,0004.17
2021-08-25 01:17:00,,0827.5,5.00,0.00,29.0,27.6,00.0,37.8,30.8,17.9,0001.8,0014.52,0005.10,0004.16
2021-08-25 01:18:00,,0827.5,5.00,0.00,28.8,25.8,00.0,37.8,30.2,18.0,0001.7,0014.53,0005.09,0004.16
2021-08-25 01:19:00,,0827.5,5.00,0.00,28.7,25.4,00.0,37.8,30.0,18.0,0001.9,0015.53,0005.07,0004.17
2021-08-25 01:20:00,,0827.5,5.01,0.00,28.6,25.8,00.0,37.8,30.2,17.9,0002.2,0017.17,0005.15,0004.18
2021-08-25 01:21:00,,0827.5,4.99,0.00,28.6,26.3,00.0,37.7,30.3,18.1,0002.2,0017.72,0005.20,0004.18
2021-08-25 01:22:00,,0827.5,4.99,0.00,28.7,26.8,00.0,37.7,30.4,18.5,0002.0,0017.73,0005.19,0004.19
2021-08-25 01:23:00,,0827.5,5.00,0.00,28.7,27.2,00.0,37.8,30.6,19.0,0002.3,0017.83,0005.21,0004.20
2021-08-25 01:24:00,,0827.5,5.01,0.00,28.8,27.6,00.0,37.8,30.7,18.7,0002.6,0017.12,0005.19,0004.21
2021-08-25 01:25:00,,0827.5,5.00,0.00,28.9,27.9,00.0,37.8,30.8,18.7,0002.9,0017.00,0005.18,0004.22
2021-08-25 01:26:00,,0827.5,4.99,0.00,28.9,28.1,00.0,37.8,30.9,18.4,0003.0,0016.73,0005.14,0004.22
2021-08-25 01:27:00,,0827.5,5.01,0.00,29.0,27.8,00.0,37.9,30.8,18.1,0002.8,0016.28,0005.16,0004.22
2021-08-25 01:28:00,,0827.5,5.00,0.00,28.9,26.0,00.0,37.8,30.3,18.0,0002.9,0015.92,0005.18,0004.22
2021-08-25 01:29:00,,0827.5,4.99,0.00,28.7,25.3,00.0,37.8,30.1,18.3,0002.6,0015.78,0005.19,0004.23
2021-08-25 01:30:00,,0827.5,5.00,0.00,28.7,25.7,00.0,37.8,30.2,18.1,0002.5,0014.80,0005.20,0004.23
2021-08-25 01:31:00,,0827.5,5.01,0.00,28.6,26.1,00.0,37.8,30.2,18.1,0002.7,0013.64,0005.13,0004.21
2021-08-25 01:32:00,,0827.5,5.01,0.00,28.6,26.6,00.0,37.8,30.4,18.1,0003.0,0013.36,0005.08,0004.20
2021-08-25 01:33:00,,0827.5,4.99,0.00,28.7,27.1,00.0,37.8,30.5,18.1,0003.0,0012.56,0005.06,0004.19
2021-08-25 01:34:00,,0827.6,5.00,0.00,28.8,27.5,00.0,37.8,30.7,18.0,0002.7,0011.78,0005.04,0004.18
2021-08-25 01:35:00,,0827.6,5.00,0.00,28.8,27.8,00.0,37.8,30.8,17.8,0002.9,0012.36,0005.03,0004.17
2021-08-25 01:36:00,,0827.6,5.00,0.00,28.9,28.0,00.0,37.8,30.9,17.7,0002.8,0012.70,0004.98,0004.16
2021-08-25 01:37:00,,0827.6,5.01,0.00,29.0,28.2,00.0,37.9,31.0,17.7,0002.5,0013.19,0004.97,0004.17
2021-08-25 01:38:00,,0827.6,5.00,0.00,29.0,28.1,00.0,37.9,31.0,17.6,0002.7,0013.43,0004.93,0004.17
2021-08-25 01:39:00,,0827.6,5.00,0.00,29.0,26.6,00.0,37.9,30.6,17.7,0003.1,0013.21,0004.92,0004.18
2021-08-25 01:40:00,,0827.6,5.00,0.00,28.9,26.3,00.0,37.9,30.4,17.8,0003.3,0012.95,0004.94,0004.18
2021-08-25 01:41:00,,0827.6,5.00,0.00,28.9,26.6,00.0,37.9,30.5,17.9,0003.2,0012.68,0004.90,0004.16
2021-08-25 01:42:00,,0827.6,5.00,0.00,28.9,26.9,00.0,37.9,30.6,17.9,0003.0,0012.17,0004.87,0004.16
2021-08-25 01:43:00,,0827.6,4.99,0.00,28.9,27.3,00.0,37.9,30.7,17.9,0003.1,0011.63,0004.86,0004.16
2021-08-25 01:44:00,,0827.7,5.00,0.00,28.9,27.6,00.0,37.9,30.8,18.0,0003.5,0012.51,0004.86,0004.16
2021-08-25 01:45:00,,0827.7,5.01,0.00,29.0,27.9,00.0,37.9,30.9,17.9,0003.9,0012.31,0004.86,0004.17
2021-08-25 01:46:00,,0827.7,4.99,0.00,29.1,28.2,00.0,37.9,31.0,17.8,0003.3,0011.54,0004.88,0004.17
2021-08-25 01:47:00,,0827.7,4.99,0.00,29.1,28.1,00.0,38.0,31.0,17.8,0003.1,0011.20,0004.91,0004.18
2021-08-25 01:48:00,,0827.7,5.01,0.00,29.1,26.5,00.0,38.0,30.6,17.9,0002.8,0010.82,0004.88,0004.17
2021-08-25 01:49:00,,0827.7,5.01,0.00,28.9,25.3,00.0,37.9,30.2,18.0,0002.3,0010.51,0004.89,0004.16
2021-08-25 01:50:00,,0827.7,5.00,0.00,28.8,25.5,00.0,37.9,30.3,18.0,0002.0,0010.96,0004.89,0004.16
2021-08-25 01:51:00,,0827.7,5.00,0.00,28.8,26.0,00.0,37.9,30.4,18.0,0001.9,0011.20,0004.88,0004.15
2021-08-25 01:52:00,,0827.7,5.00,0.00,28.8,26.5,00.0,37.9,30.5,17.8,0001.6,0011.19,0004.86,0004.14
2021-08-25 01:53:00,,0827.7,5.00,0.00,28.8,26.9,00.0,37.9,30.6,17.7,0001.8,0011.34,0004.87,0004.14
2021-08-25 01:54:00,,0827.7,4.99,0.00,28.9,27.3,00.0,37.9,30.8,17.5,0001.8,0011.90,0004.87,0004.14
2021-08-25 01:55:00,,0827.8,5.00,0.00,28.9,27.7,00.0,37.9,30.8,17.4,0001.4,0012.16,0004.85,0004.14
2021-08-25 01:56:00,,0827.8,5.01,0.00,29.0,27.9,00.0,37.9,30.9,17.3,0001.4,0012.87,0004.83,0004.14
2021-08-25 01:57:00,,0827.9,5.00,0.00,29.0,28.1,00.0,38.0,31.0,17.1,0002.1,0013.73,0004.82,0004.14
2021-08-25 01:58:00,,0827.9,5.00,0.00,29.1,28.3,00.0,38.0,31.1,17.1,0002.2,0013.91,0004.81,0004.13
2021-08-25 01:59:00,,0827.9,4.99,0.00,29.2,28.5,00.0,38.0,31.2,17.1,0002.4,0013.98,0004.87,0004.13
